Theta_e
337 340 340 339 338 338 338 334 338 338 337 336 339 337 327 322 321 325 329 331 331 333 332 333 332 333 332 332 332 332 331 331 331
311 319 328 335 337 337 336 337 333 337 337 337 338 339 330 325 321 324 330 331 332 335 333 332 332 333 333 332 332 332 332 331 331
310 310 310 312 319 336 337 335 337 333 337 337 337 338 336 328 325 323 330 331 334 336 335 334 333 333 333 332 332 332 331 331 330
312 311 312 322 327 326 333 336 335 336 334 336 336 336 338 332 329 326 326 332 332 336 336 334 333 332 333 332 332 331 331 331 330
312 312 312 311 315 321 327 327 334 335 335 334 335 336 336 336 332 331 327 328 330 335 336 334 332 333 333 333 332 332 331 331 330
311 312 312 312 312 312 322 326 328 332 335 335 334 334 335 335 335 333 332 327 329 335 337 335 334 333 333 333 332 331 332 331 330
309 309 311 312 312 312 313 315 323 330 333 335 335 334 334 336 335 334 333 332 328 333 336 335 332 333 333 333 332 332 332 331 330
308 308 308 309 311 311 312 313 313 314 317 329 332 334 334 333 336 335 334 332 332 332 334 335 332 330 330 333 333 332 332 331 331
310 309 310 309 308 308 309 311 312 313 313 314 321 328 332 333 333 334 335 334 332 333 333 335 333 331 329 333 333 332 331 331 331
310 310 311 311 311 311 309 308 310 312 313 313 314 324 328 330 333 333 333 335 333 331 330 335 336 334 335 335 334 332 332 331 330
311 311 311 312 312 312 312 311 311 312 313 313 314 316 322 323 327 333 333 333 334 332 332 332 336 336 335 335 335 335 333 331 331
311 311 313 313 313 312 312 312 312 312 312 312 312 313 318 319 321 323 331 332 333 333 332 332 334 333 332 335 335 334 335 334 333
311 313 313 311 311 311 312 312 312 311 312 313 313 313 315 319 318 317 324 330 331 332 332 332 331 333 331 334 336 334 332 332 332
312 312 310 311 311 312 311 312 313 313 313 313 313 313 314 317 315 314 319 325 330 331 332 331 331 331 330 332 332 334 334 332 331
311 310 311 310 310 310 312 313 313 314 313 313 313 313 314 315 314 315 321 328 330 331 332 331 331 332 330 330 331 333 334 333 331
310 310 310 311 311 311 312 314 314 313 313 313 312 314 314 315 323 327 326 328 331 331 331 330 330 330 330 332 330 332 334 332 332
309 310 310 310 311 311 312 312 313 315 314 312 313 313 317 321 321 324 325 326 329 329 330 329 328 327 328 326 328 330 331 329 328
309 310 309 310 311 311 312 313 315 314 315 314 313 313 315 318 321 321 324 326 328 325 325 325 325 324 324 324 325 325 326 324 323
307 308 309 310 310 310 310 312 313 315 316 317 315 315 316 319 321 321 321 322 323 324 321 322 323 323 322 321 320 319 320 321 321
307 308 308 308 309 310 310 311 311 313 316 317 317 318 319 318 314 319 321 321 322 321 321 321 319 318 318 320 320 319 319 319 319
Wind_Speed
14 14 14 16 16 16 17 17 17 17 17 18 17 15 14 13 14 13 11 11 14 13 12 12 12 11 11 11 11 10 9 9 7
15 16 17 16 17 18 19 19 18 16 16 18 19 19 17 16 15 16 12 12 14 14 12 12 12 12 12 12 12 11 10 9 8
14 15 17 19 19 19 19 19 20 19 19 20 21 21 20 19 19 18 16 12 17 16 14 13 13 13 13 13 12 12 11 10 9
11 12 12 15 16 16 19 20 22 22 22 23 23 23 23 23 22 21 20 17 19 18 17 16 16 15 14 14 13 13 12 11 10
11 12 13 14 13 14 17 20 21 24 24 25 25 25 25 26 25 24 24 22 18 22 20 18 18 18 17 16 15 14 13 12 12
14 14 14 13 13 14 14 16 18 22 24 25 26 27 28 29 29 29 27 25 23 23 24 21 19 20 19 18 17 16 15 14 13
15 16 17 17 16 16 16 16 17 16 21 25 27 29 31 32 33 33 31 28 27 22 27 27 21 21 21 20 19 19 18 17 15
16 16 17 19 20 20 19 19 18 19 18 20 26 30 32 35 36 36 35 32 30 27 28 31 26 23 23 23 21 21 20 19 18
18 19 19 20 20 22 22 23 22 22 21 20 21 25 30 34 37 38 39 36 33 30 28 31 30 27 25 24 24 24 23 21 20
20 18 18 19 20 21 22 22 22 23 23 22 22 20 24 29 35 37 39 38 36 34 33 32 31 29 28 27 26 25 24 22 21
16 16 18 21 21 20 21 21 21 22 21 22 21 19 20 21 25 32 37 38 35 35 35 34 35 31 29 28 29 29 27 24 22
16 17 19 20 20 20 20 20 20 21 22 23 22 21 19 19 20 21 28 31 33 33 35 36 38 38 32 29 30 29 28 29 27
15 16 19 23 23 21 21 21 23 23 23 24 22 21 18 18 17 20 19 26 31 32 33 36 35 39 34 29 29 29 28 27 25
13 16 20 23 23 21 19 21 21 23 24 24 24 21 19 18 21 22 20 20 26 30 34 33 33 36 33 30 26 28 28 27 25
13 16 20 21 19 19 23 23 22 21 21 22 24 19 15 18 21 19 18 16 16 25 28 31 26 34 32 34 28 27 27 26 25
12 16 18 19 20 18 19 20 23 24 21 19 17 13 16 13 8 12 11 13 5 11 13 13 15 16 20 25 27 25 23 21 21
11 14 16 17 19 18 20 20 18 19 19 7 7 4 3 2 4 4 4 3 5 8 10 10 9 6 6 1 16 25 19 12 13
11 11 13 14 15 16 17 19 19 15 20 14 4 3 2 2 7 5 5 6 12 12 13 13 14 12 10 12 11 10 13 9 8
12 10 11 11 13 15 16 17 17 18 15 16 4 10 8 3 2 5 7 7 10 12 13 17 19 18 18 15 11 9 10 13 14
13 11 11 12 11 11 13 14 16 15 14 14 8 4 1 4 1 2 2 6 4 6 8 11 11 11 9 11 9 8 4 5 7
Wind_Direction
304 303 296 289 281 274 273 271 270 264 262 242 240 242 241 227 219 218 218 234 216 212 211 215 213 202 188 184 182 181 178 176 173
300 299 297 293 289 281 274 269 268 268 259 243 241 244 242 235 227 223 228 214 210 206 207 212 207 197 194 191 190 189 188 187 183
318 314 310 301 293 287 280 273 268 263 257 252 246 245 243 239 234 228 228 225 208 212 210 206 206 204 206 201 199 198 195 194 193
331 331 328 328 300 292 291 285 276 268 262 258 251 247 243 242 241 236 233 230 223 223 214 212 209 209 210 209 206 206 203 202 200
315 317 321 322 320 308 296 299 294 276 268 262 258 249 245 245 245 243 238 236 235 224 219 218 212 210 212 212 212 212 212 210 209
310 313 318 313 312 314 301 299 303 294 273 268 260 256 248 245 245 246 243 237 234 225 223 217 216 213 214 215 214 215 216 218 217
318 309 307 308 309 309 314 316 311 303 289 273 267 257 253 250 248 248 246 241 238 233 230 223 228 217 216 218 219 218 218 219 222
344 335 324 316 312 309 310 311 313 321 320 299 285 269 259 253 252 251 249 244 241 236 231 226 231 230 222 220 223 223 222 222 221
355 349 347 344 336 321 311 307 307 311 314 317 306 289 270 259 257 256 253 247 243 237 232 225 229 232 229 221 222 226 226 226 227
340 341 347 349 348 344 333 319 312 311 308 308 313 303 286 271 261 258 262 259 243 240 230 226 224 226 224 223 226 227 229 230 231
355 350 351 349 346 341 336 332 322 317 316 309 307 303 295 291 283 262 262 263 255 238 234 229 226 225 224 224 228 230 230 231 233
348 346 345 347 340 334 330 328 325 320 314 312 306 309 294 293 296 288 272 265 261 241 238 235 231 229 231 225 226 232 234 234 235
350 350 348 342 338 332 326 326 324 320 317 314 308 299 305 292 295 300 282 268 261 249 240 238 236 228 234 232 229 228 235 238 240
351 353 350 348 345 345 341 328 324 322 321 318 312 300 299 292 298 295 288 277 262 256 247 239 233 228 240 236 238 233 233 238 239
345 353 1 1 351 342 344 337 329 321 316 316 309 296 294 293 292 282 280 276 251 245 254 241 242 230 239 241 239 232 233 235 241
344 354 2 5 1 343 332 328 334 326 325 315 315 295 297 290 293 258 255 279 212 187 195 244 231 235 244 242 236 236 235 234 238
342 351 358 3 1 358 346 342 333 324 329 296 304 327 336 331 358 202 180 197 220 201 194 174 169 136 152 122 263 243 229 208 210
332 340 351 0 359 358 354 355 339 328 333 323 240 330 314 315 35 52 113 130 147 143 149 169 168 175 197 199 140 164 167 165 206
320 323 342 345 349 351 354 356 356 351 332 348 308 244 263 294 326 10 60 92 105 124 134 145 152 160 170 176 174 181 183 165 178
334 322 331 337 337 338 347 348 357 3 358 356 332 301 251 236 99 310 352 55 88 147 154 164 173 165 163 165 151 164 192 201 247